Location: Oakhurst
(33.6448°N, 111.9543°W)
Time: 07:13:03
(UTC+00:00)

FO-99 - Visible Passes

Search period start: 29 July 2021 00:00
Search period end: 08 August 2021 00:00
Orbit: 473 x 503 km, 97.2° (Epoch: 28 July)

Date Brightness Start Highest point End Pass type
(mag) Time Alt. Az. Time Alt. Az. Time Alt. Az.
29 Jul ? 03:58:18 10° SSW 04:01:30 28° W 04:04:44 10° NW visible
30 Jul ? 03:34:30 10° S 03:38:08 62° W 03:41:48 10° NNW visible
31 Jul ? 03:11:12 10° SSE 03:14:50 59° ENE 03:18:29 10° N visible
01 Aug ? 04:23:09 10° SW 04:25:07 14° W 04:27:05 10° WNW visible
02 Aug ? 03:58:28 10° SSW 04:01:39 28° W 04:04:52 10° NW visible
03 Aug ? 03:34:37 10° S 03:38:16 60° W 03:41:56 10° NNW visible
04 Aug ? 03:11:18 10° SSE 03:14:56 60° ENE 03:18:35 10° N visible
05 Aug ? 02:48:30 10° SE 02:51:41 28° ENE 02:54:52 10° NNE visible
05 Aug ? 04:23:18 10° SW 04:25:13 14° W 04:27:07 10° WNW visible
06 Aug ? 03:58:33 10° SSW 04:01:44 27° W 04:04:55 10° NW visible
07 Aug ? 03:34:41 10° S 03:38:19 59° W 03:41:58 10° NNW visible
